Wind_Speed
14 14 13 12 12 11 10 9 8 7 6 7 8 9 11 13 16 18 21 24 27 29 31 33 35 37 38 40 41 42 43 44 45 46 46 47 47 47 48 48 48 49 48 48
12 12 11 10 9 8 7 6 6 5 6 7 9 11 13 15 18 20 23 26 29 32 34 36 38 40 41 43 44 46 47 48 49 49 50 50 51 51 51 51 50 50 50 50
10 9 8 7 6 5 5 4 4 5 7 8 10 12 15 18 20 22 25 28 31 34 36 39 41 42 44 46 47 48 50 51 52 52 53 53 53 53 53 53 53 52 52 51
7 6 5 3 3 3 3 4 6 8 9 11 13 15 18 20 23 25 28 30 33 35 38 41 43 45 47 49 50 51 52 53 54 55 55 55 55 54 54 54 54 53 53 52
5 4 3 2 2 3 5 7 9 10 12 14 17 19 21 23 26 29 31 34 36 38 41 43 45 47 48 50 51 52 53 54 55 55 56 56 56 55 55 54 53 53 52 51
3 2 2 2 3 5 7 8 10 12 14 17 19 21 24 27 29 32 34 37 39 41 43 46 47 49 50 51 52 53 53 54 54 54 54 55 55 55 55 54 52 52 51 50
2 2 3 4 5 7 8 10 11 14 16 19 21 24 26 29 32 34 37 40 42 44 47 48 50 51 52 53 55 55 55 55 55 55 55 55 54 54 54 53 52 51 50 50
2 3 4 5 7 9 10 13 15 17 19 22 25 28 30 33 35 38 40 43 45 47 48 50 51 53 54 55 56 57 57 57 57 57 56 56 55 54 53 52 51 50 50 49
2 3 5 7 9 11 14 16 18 20 23 26 28 31 34 37 39 41 44 45 47 49 50 52 53 54 56 57 57 57 58 59 59 58 58 57 56 55 54 53 52 50 49 49
5 6 8 10 12 14 17 19 21 24 26 29 32 35 37 40 43 45 47 48 50 52 53 55 57 58 59 60 60 61 61 61 60 60 59 58 57 56 55 54 54 53 50 49
8 10 12 14 16 18 20 22 25 27 30 33 36 38 41 44 46 48 49 51 52 53 55 57 58 60 61 62 62 62 62 61 60 59 59 57 57 56 55 54 53 52 51 51
11 13 15 17 19 21 23 26 28 31 33 36 39 42 44 47 49 50 51 52 54 56 58 59 59 60 61 61 62 62 61 60 59 58 57 55 54 53 52 51 51 51 50 50
14 16 18 20 22 24 26 29 31 34 37 39 42 45 47 48 49 50 52 53 55 56 57 57 57 58 59 60 60 60 59 58 57 56 54 53 51 50 50 50 50 49 49 49
17 18 20 22 24 27 29 32 34 37 40 43 45 47 48 49 50 51 52 53 54 54 55 55 56 57 57 57 57 56 56 55 53 52 51 50 49 48 48 48 47 48 48 47
19 21 22 24 27 29 32 34 37 40 43 46 48 49 50 50 50 51 52 53 53 54 55 55 55 55 55 54 54 53 51 50 49 48 47 46 46 46 45 46 46 46 47 47
21 23 25 27 29 32 35 37 40 43 46 49 50 51 51 50 50 52 53 54 54 55 55 55 54 54 54 52 50 49 47 46 44 43 41 41 41 41 42 43 43 44 45 45
24 25 28 30 32 35 38 41 44 47 49 51 52 51 51 51 52 53 54 55 55 55 55 54 53 52 51 49 47 45 43 41 40 38 36 35 35 36 38 40 42 43 44 44
26 28 30 32 35 38 41 44 47 50 52 53 53 52 52 53 53 54 55 55 55 55 55 54 52 50 48 46 44 42 40 37 35 33 32 32 31 33 34 37 39 41 43 43
28 30 32 35 38 40 43 47 50 53 54 55 54 53 53 54 55 55 55 55 55 54 52 52 50 47 45 43 40 38 36 33 32 31 30 29 29 30 32 34 36 38 40 42
30 32 35 37 40 43 46 49 53 55 56 56 55 54 55 56 57 56 56 55 54 53 51 49 47 45 42 39 37 35 33 32 30 29 28 28 28 29 30 32 34 36 38 40
31 34 37 40 43 46 49 52 55 57 58 57 56 56 57 58 58 57 56 54 52 51 49 47 45 42 39 36 34 32 31 30 28 27 27 26 27 27 29 30 32 34 36 37
33 36 39 42 45 48 51 55 57 58 59 58 58 59 59 59 58 57 55 53 51 49 47 45 42 39 35 33 31 29 28 26 25 24 23 24 24 25 26 28 30 32 34 35
35 38 41 44 47 50 54 57 59 60 60 59 60 60 60 59 58 56 54 52 50 47 45 42 38 35 32 30 27 25 24 23 22 22 21 21 22 23 24 26 28 30 32 33
37 40 43 46 49 52 55 58 60 60 61 61 61 61 61 60 58 56 54 50 47 44 41 38 34 31 29 26 24 23 22 21 20 20 20 21 21 21 22 23 25 28 30 32
39 42 45 48 51 54 57 59 60 61 61 61 61 61 61 60 57 55 52 47 43 40 37 34 31 28 27 24 23 21 20 20 19 18 18 18 19 19 20 21 22 25 28 29
41 44 47 50 52 55 58 60 61 61 61 61 61 61 60 58 55 53 49 44 40 37 34 32 29 27 25 22 20 19 18 17 16 15 15 16 17 18 18 19 20 22 25 27
42 45 48 51 54 57 59 61 61 61 61 61 60 59 58 55 52 49 46 42 37 35 32 30 28 25 22 20 18 16 14 13 12 12 12 13 14 16 17 18 19 20 22 24
Wind_Direction
124 126 127 127 128 130 135 142 155 170 185 202 220 233 243 250 256 259 260 261 262 263 263 264 264 265 266 266 267 267 267 267 267 267 267 267 267 267 267 267 267 266 266 265
127 128 130 133 135 139 146 156 176 197 218 234 242 251 257 260 264 266 267 268 267 267 268 268 268 268 268 268 268 267 267 268 268 268 268 268 268 267 267 267 267 266 266 265
125 128 130 138 144 155 170 190 211 232 248 256 261 265 268 269 270 270 270 271 272 271 271 271 271 270 270 270 270 270 270 270 270 270 269 269 269 268 268 267 267 266 266 266
133 136 139 149 169 197 228 249 259 265 269 270 273 274 275 276 275 275 276 276 276 276 275 274 273 273 272 272 271 271 271 271 271 271 270 270 269 269 268 268 267 267 266 266
150 152 152 168 219 254 266 271 274 276 278 279 280 281 281 281 280 280 280 279 279 279 278 277 276 275 275 275 274 273 273 273 272 272 271 270 270 269 268 267 267 266 265 265
163 185 222 259 281 287 288 285 284 284 284 284 284 285 285 285 285 284 283 282 282 281 281 280 279 278 277 277 276 275 275 274 273 273 272 271 270 269 268 267 266 265 264 263
208 239 268 284 291 296 297 299 296 294 292 291 289 289 288 288 287 286 286 285 284 284 283 283 282 281 280 279 278 276 276 275 274 274 273 272 270 269 268 267 265 263 262 261
245 272 288 293 297 300 300 300 300 298 296 294 293 292 291 290 289 288 287 286 285 285 284 284 283 282 281 281 280 278 277 276 275 274 273 272 270 269 267 265 264 262 260 259
295 302 303 304 305 304 303 302 301 300 299 298 297 296 295 294 293 291 290 288 287 286 286 285 284 284 283 282 281 280 279 278 277 275 273 271 270 268 266 264 262 260 258 256
301 302 305 305 305 305 305 304 304 303 302 301 300 299 298 296 295 294 292 290 289 288 287 286 286 285 285 284 283 281 280 278 276 275 273 271 269 267 265 263 260 258 256 254
300 303 305 306 306 306 306 306 306 306 305 304 303 302 300 299 297 296 295 293 291 290 290 289 288 287 286 285 284 283 281 280 278 276 274 271 269 267 264 261 258 256 254 252
302 304 304 306 307 307 308 308 308 308 307 307 307 305 304 302 301 299 297 295 294 294 293 292 290 289 288 287 286 284 282 280 279 277 274 271 268 265 261 257 254 253 251 249
305 306 307 308 309 310 311 311 312 311 311 311 310 309 307 305 303 301 300 299 298 298 296 294 292 291 290 289 288 286 284 282 280 277 274 270 267 263 258 254 252 249 247 245
308 309 310 311 312 312 313 314 315 315 315 315 314 312 311 308 307 305 304 303 302 301 300 298 296 295 293 292 290 289 287 285 282 277 272 269 265 262 257 252 249 246 244 242
311 312 313 314 314 315 316 317 318 318 318 318 317 315 313 311 310 309 307 306 305 304 303 301 300 298 296 295 294 292 290 287 282 278 273 267 263 259 255 250 246 244 241 240
313 314 315 316 317 318 319 320 321 321 321 321 319 318 316 314 313 312 310 309 308 307 305 303 302 300 298 297 296 295 292 288 284 279 273 266 261 255 251 247 243 240 238 237
314 316 317 318 319 320 321 323 323 323 323 323 321 320 318 316 315 314 313 312 311 309 307 306 304 303 301 299 297 295 292 289 286 279 271 266 260 254 248 244 240 237 235 234
316 317 318 320 321 322 323 324 325 325 325 324 323 322 320 319 318 316 315 314 313 311 309 308 307 305 303 300 298 295 292 288 285 280 272 264 259 253 247 242 237 234 232 232
317 318 320 321 322 323 324 326 326 327 327 326 325 324 322 321 320 319 317 316 315 313 311 310 308 306 304 301 299 296 292 287 283 279 272 264 257 252 246 242 237 234 232 230
317 319 320 322 323 324 326 327 327 327 328 327 327 326 324 323 322 321 319 318 316 315 313 311 310 307 304 301 298 296 293 288 282 277 270 263 258 252 246 241 237 234 231 229
318 319 321 323 324 325 326 327 328 328 328 328 328 327 326 325 324 322 321 320 318 316 315 313 311 308 305 301 298 296 293 289 283 276 268 261 257 251 246 242 237 232 230 228
318 320 322 323 325 326 327 328 329 329 329 329 328 328 327 326 325 324 323 321 320 319 317 315 312 309 306 303 300 296 293 289 282 274 266 260 255 250 245 241 236 232 229 226
319 321 323 324 325 326 328 329 330 330 330 329 329 329 329 328 327 325 324 323 322 321 319 317 315 312 308 304 300 296 292 288 282 272 265 259 255 249 244 240 236 230 227 225
319 321 323 324 326 327 329 330 330 330 330 330 330 330 330 329 328 328 326 325 324 323 322 321 318 315 311 307 302 297 293 289 283 274 264 258 254 248 243 238 233 228 225 224
319 321 323 325 326 328 329 330 331 331 331 331 331 331 331 330 330 330 329 328 327 326 326 325 322 319 315 311 305 299 294 290 284 273 264 257 249 244 240 236 232 227 224 222
319 321 323 325 326 328 329 331 331 331 331 331 331 332 332 331 331 331 332 330 329 329 328 327 325 322 319 315 309 303 298 292 282 272 263 254 245 239 235 232 230 227 223 220
319 321 323 325 327 328 330 331 331 331 332 332 332 333 333 333 332 332 333 332 330 330 329 328 328 325 321 318 314 309 303 295 282 271 261 250 241 234 230 230 229 226 222 219
Height
5634 5636 5637 5639 5641 5643 5645 5647 5649 5651 5652 5654 5655 5657 5658 5659 5660 5660 5660 5661 5661 5661 5661 5661 5661 5661 5661 5660 5660 5660 5659 5659 5659 5658 5659 5659 5659 5660 5661 5661 5662 5662 5663 5664
5637 5638 5639 5641 5643 5644 5646 5647 5648 5650 5651 5652 5653 5654 5655 5656 5656 5656 5655 5655 5654 5653 5653 5652 5652 5651 5650 5649 5649 5648 5648 5647 5646 5646 5646 5646 5646 5646 5647 5647 5647 5648 5649 5650
5639 5640 5641 5643 5644 5645 5646 5647 5648 5649 5650 5650 5651 5651 5651 5651 5651 5651 5650 5649 5647 5646 5644 5643 5641 5640 5638 5637 5636 5635 5634 5633 5632 5632 5631 5631 5631 5631 5631 5632 5633 5633 5634 5635
5640 5642 5643 5646 5644 5645 5645 5646 5646 5647 5647 5647 5647 5647 5647 5646 5645 5644 5643 5641 5639 5637 5635 5633 5630 5628 5626 5624 5622 5620 5619 5618 5617 5616 5616 5615 5615 5615 5615 5616 5617 5617 5618 5619
5641 5642 5643 5644 5644 5644 5645 5645 5644 5644 5644 5644 5643 5643 5642 5640 5638 5636 5634 5631 5629 5626 5623 5621 5618 5615 5612 5610 5608 5605 5604 5602 5601 5600 5599 5598 5598 5598 5599 5599 5600 5601 5602 5603
5641 5641 5642 5644 5643 5643 5644 5643 5642 5641 5641 5640 5638 5637 5636 5633 5630 5627 5624 5621 5618 5615 5611 5608 5605 5601 5598 5595 5593 5590 5588 5586 5584 5583 5582 5581 5581 5581 5581 5582 5583 5584 5586 5588
5641 5641 5642 5642 5641 5642 5642 5642 5639 5638 5636 5635 5633 5631 5629 5625 5622 5618 5615 5611 5607 5603 5599 5594 5590 5586 5583 5579 5576 5574 5571 5569 5567 5566 5565 5564 5563 5563 5564 5565 5566 5568 5570 5572
5640 5640 5643 5640 5639 5639 5639 5636 5635 5633 5631 5629 5627 5624 5620 5616 5612 5608 5604 5599 5594 5590 5585 5580 5575 5571 5567 5562 5558 5555 5553 5551 5549 5547 5546 5545 5545 5545 5546 5547 5549 5550 5553 5555
5640 5641 5639 5638 5637 5636 5634 5632 5630 5628 5625 5623 5619 5615 5611 5607 5602 5597 5591 5586 5580 5575 5570 5564 5559 5554 5550 5545 5540 5537 5534 5531 5529 5528 5527 5526 5526 5527 5528 5529 5531 5533 5536 5539
5638 5637 5636 5635 5633 5632 5630 5627 5625 5622 5619 5615 5611 5606 5601 5596 5590 5584 5577 5571 5565 5559 5554 5548 5542 5536 5531 5526 5521 5518 5514 5511 5509 5507 5506 5506 5506 5507 5508 5510 5512 5515 5518 5522
5635 5635 5633 5631 5629 5627 5625 5622 5618 5615 5611 5606 5601 5596 5590 5583 5576 5569 5562 5555 5549 5542 5536 5530 5523 5517 5510 5505 5500 5496 5493 5490 5488 5486 5485 5485 5485 5486 5487 5490 5492 5496 5500 5504
5633 5631 5629 5627 5624 5622 5618 5615 5611 5607 5602 5596 5590 5584 5577 5569 5562 5554 5547 5539 5532 5525 5518 5511 5504 5497 5490 5484 5479 5475 5471 5468 5466 5465 5464 5464 5464 5466 5467 5470 5473 5477 5481 5486
5629 5626 5624 5621 5618 5615 5612 5608 5603 5598 5592 5586 5579 5571 5563 5555 5547 5539 5531 5523 5515 5507 5499 5491 5484 5477 5470 5464 5459 5453 5450 5447 5444 5443 5442 5442 5443 5445 5448 5451 5454 5458 5463 5469
5623 5621 5618 5615 5612 5608 5604 5599 5594 5588 5581 5574 5566 5558 5549 5540 5532 5524 5515 5507 5498 5490 5481 5473 5466 5458 5451 5445 5439 5434 5429 5426 5423 5422 5421 5422 5423 5426 5429 5432 5437 5441 5447 5452
5618 5615 5612 5609 5605 5600 5596 5590 5584 5577 5570 5562 5553 5544 5535 5526 5518 5509 5500 5491 5482 5474 5464 5456 5448 5440 5433 5426 5421 5415 5410 5406 5403 5402 5401 5402 5404 5406 5410 5414 5419 5425 5430 5436
5612 5609 5605 5601 5597 5592 5587 5581 5574 5567 5559 5550 5540 5531 5521 5512 5503 5494 5485 5475 5467 5457 5448 5439 5431 5423 5416 5409 5404 5398 5393 5389 5385 5383 5383 5383 5385 5389 5393 5397 5403 5409 5415 5421
5606 5602 5598 5594 5589 5584 5578 5571 5564 5556 5547 5537 5528 5518 5508 5499 5490 5480 5470 5460 5450 5441 5431 5423 5415 5407 5400 5393 5388 5383 5378 5374 5371 5368 5368 5368 5370 5373 5377 5381 5387 5393 5400 5406
5599 5595 5591 5586 5581 5575 5568 5561 5553 5544 5535 5525 5515 5505 5495 5486 5476 5467 5456 5446 5436 5426 5416 5407 5399 5392 5384 5378 5373 5368 5364 5361 5358 5356 5355 5356 5358 5360 5363 5368 5373 5379 5385 5391
5592 5588 5583 5577 5572 5566 5559 5551 5542 5533 5523 5513 5503 5493 5483 5473 5463 5452 5442 5431 5421 5412 5403 5393 5384 5377 5370 5364 5359 5355 5351 5348 5346 5345 5344 5345 5347 5349 5352 5356 5361 5366 5372 5378
5584 5580 5574 5569 5563 5556 5549 5540 5531 5522 5511 5501 5491 5481 5470 5460 5449 5438 5428 5417 5406 5397 5388 5380 5371 5364 5357 5352 5347 5343 5340 5337 5336 5334 5334 5335 5336 5339 5342 5346 5350 5355 5361 5366
5576 5572 5566 5560 5553 5546 5538 5530 5521 5510 5500 5489 5479 5469 5458 5447 5436 5425 5414 5405 5394 5383 5374 5366 5358 5351 5345 5340 5336 5332 5329 5326 5325 5324 5324 5325 5327 5329 5332 5336 5340 5344 5350 5356
5568 5563 5557 5551 5544 5536 5528 5519 5509 5499 5488 5478 5467 5457 5446 5435 5423 5412 5400 5390 5381 5371 5362 5353 5346 5339 5333 5329 5325 5322 5319 5317 5315 5315 5315 5316 5318 5320 5323 5326 5330 5335 5340 5346
5560 5554 5548 5542 5534 5526 5517 5508 5498 5487 5477 5466 5455 5444 5433 5422 5410 5399 5390 5379 5368 5359 5350 5342 5335 5329 5324 5320 5316 5313 5311 5309 5307 5307 5308 5309 5310 5312 5315 5318 5321 5325 5331 5337
5551 5546 5539 5532 5525 5516 5507 5497 5487 5476 5465 5454 5443 5432 5421 5410 5398 5386 5376 5366 5357 5348 5340 5333 5326 5320 5316 5312 5308 5306 5303 5301 5300 5300 5300 5301 5302 5304 5307 5310 5313 5318 5323 5328
5542 5537 5530 5523 5515 5506 5497 5487 5476 5465 5454 5443 5431 5420 5408 5397 5386 5376 5366 5356 5347 5339 5332 5325 5319 5314 5309 5305 5302 5299 5297 5295 5293 5293 5293 5294 5296 5298 5300 5303 5306 5311 5315 5321
5533 5527 5521 5513 5505 5496 5487 5477 5466 5455 5444 5433 5421 5410 5398 5386 5376 5366 5356 5347 5339 5332 5325 5319 5313 5308 5303 5299 5296 5293 5290 5289 5287 5287 5288 5289 5290 5292 5295 5298 5301 5305 5309 5314
5524 5518 5511 5503 5495 5486 5476 5466 5455 5445 5434 5423 5412 5400 5389 5378 5367 5358 5349 5340 5333 5326 5319 5313 5308 5303 5298 5294 5291 5288 5286 5285 5284 5283 5284 5285 5286 5288 5291 5294 5297 5300 5304 5308